LiveATC.Net - Listen to live air traffic control over the Internet!


ICAO: LBBG  IATA: BOJ   Airport: Burgas International Airport
City: Burgas
Country: Bulgaria   Continent: Europe
LBBG METAR Weather: LBBG 200130Z 00000KT CAVOK 17/16 Q1009 NOSIG
LBBG Flight Activity (FlightAware)

LBBG Twr/App
Feed Status: DOWN
Last heard on: 2019-05-19 18:18:03 (0 days 7 hours 17 minutes ago)
LBBG Twr/App Audio Archives
FacilityFrequency
Burgas Approach125.100
Burgas Tower118.000

NOTICE

Unauthorized use prohibited. See LiveATC.net Terms of Service


Find LiveATC Audio Streams


Airport/ARTCC Code

Frequency Search
(e.g., 124.400, 128.75)
Site-wide search
 


Browse LiveATC Feeds
Top 50 LiveATC Feeds
LiveATC Feed Map
Bad Weather Areas

LiveATC FAQ
Offer LiveATC feed
Contact LiveATC.net
Press Inquiries

LiveATC on iPhone
LiveATC on Android

Windows Phone
Windows 8/10

LiveATC Mobile
(Mobile browser)

ATC Audio Archives
Interesting Recordings

LiveATC Forums


Home Page
About LiveATC.net
Make a Donation
Terms of Use
Privacy Policy

Canadian Air Freqs

AIRMETs/SIGMETs

FAA Airport Status
Nat'l Airspace Status
Arrival Demand Charts


Server Software By:
Icecast.org
Liquidsoap